[[{"header":{"parameterUnit":"m.s-1","parameterCategory":1,"la1":30.2991,"la2":30.254,"lo1":-89.0895,"lo2":-89.0444,"dy":0.0017,"dx":0.0017,"nx":28,"ny":28,"refTime":"2024-12-31T03:00:00:Z","depth":0,"parameterNumber":2,"parameterNumberName":"U-component_of_WINDS"},"data":[0,0,0,0,0,0,0,0,0,0,0,0,0,0,0,0,0,0,0,0,0,0,0,0,0,0,0,0,0,0,0,0,0,0,0,0,0,0,0,0,0,0,0,0,0,0,0,0,0,0,0,0,0,0,0,0,0,0,-0.0594,-0.0594,0,-0.0553,-0.0552,-0.0552,-0.0553,-0.0554,-0.0554,-0.0555,-0.0512,-0.051,-0.0509,0,0,0,0,0,0,0,0,0,0,0,0,0,-0.0676,-0.0674,-0.0594,-0.0594,-0.0593,-0.0553,-0.0552,-0.0552,-0.0553,-0.0554,-0.0554,-0.0555,-0.0512,-0.051,-0.0508,0,0,0,0,0,0,0,0,0,0,0,0,0,-0.0638,-0.0674,-0.0594,-0.0589,-0.0588,-0.0553,-0.0552,-0.0551,-0.0553,-0.0554,-0.0555,-0.0555,-0.0513,-0.0511,-0.0508,-0.0475,0,0,-0.05,-0.0499,0,0,0,0,0,0,0,0,-0.064,-0.0635,-0.059,-0.0589,-0.0588,-0.0559,-0.0565,-0.0526,-0.0553,-0.0566,-0.0555,-0.0556,-0.0527,-0.0523,-0.0513,-0.0473,-0.0471,-0.05,-0.0499,-0.0498,-0.0497,0,0,0,0,0,0,0,-0.0642,-0.0637,-0.0578,-0.059,-0.0588,-0.0589,-0.0585,-0.0558,-0.0542,-0.0565,-0.0565,-0.056,-0.0526,-0.0516,-0.0512,-0.0471,-0.05,-0.0498,-0.0496,-0.0495,-0.0404,-0.0403,0,0,0,0,0,0,-0.0646,-0.0639,-0.0579,-0.0576,-0.0617,-0.0587,-0.0582,-0.0567,-0.0542,-0.0539,-0.056,-0.056,-0.052,-0.0515,-0.0511,-0.0472,-0.0498,-0.0495,-0.0494,-0.0405,-0.0404,-0.0403,0,0,0,0,0,0,-0.0648,-0.0641,-0.0581,-0.0608,-0.06,-0.0585,-0.0568,-0.0566,-0.0556,-0.0538,-0.0536,-0.0552,-0.052,-0.0515,-0.0485,-0.0471,-0.0494,-0.0492,-0.0406,-0.0405,-0.0403,-0.0394,0,0,0,0,0,0,-0.065,-0.0641,-0.0628,-0.0607,-0.0599,-0.0555,-0.0567,-0.0565,-0.0551,-0.0552,-0.053,-0.0527,-0.0521,-0.0489,-0.0482,-0.0468,-0.049,-0.0407,-0.0406,-0.0404,-0.0395,-0.0392,-0.039,0,0,0,0,0,-0.0653,-0.0626,-0.0628,-0.062,-0.0582,-0.0554,-0.0549,-0.0542,-0.055,-0.0537,-0.0527,-0.0528,-0.0474,-0.0485,-0.0478,-0.0463,-0.0408,-0.0406,-0.0404,-0.0396,-0.0393,-0.039,0,0,0,0,0,0,-0.0645,-0.0623,-0.0624,-0.059,-0.0574,-0.0554,-0.0537,-0.0538,-0.0518,-0.052,-0.0512,-0.0507,-0.0478,-0.0467,-0.0481,-0.0431,-0.0442,-0.0438,-0.0439,-0.0435,-0.0432,-0.0435,-0.0488,0,0,0,0,0,-0.064,-0.0619,-0.0601,-0.0572,-0.0564,-0.0552,-0.054,-0.0536,-0.0519,-0.0512,-0.0499,-0.0482,-0.0461,-0.0448,-0.0427,-0.0394,-0.039,-0.038,-0.0378,-0.0375,-0.0372,-0.0356,-0.0351,-0.0396,-0.0396,-0.0396,0,0,-0.0627,-0.0613,-0.06,-0.057,-0.0557,-0.0536,-0.0546,-0.0523,-0.0508,-0.0508,-0.0479,-0.047,-0.0451,-0.042,-0.0405,-0.041,-0.0359,-0.0373,-0.0371,-0.0369,-0.0353,-0.0349,-0.0345,-0.0395,-0.0395,-0.0395,0,0,-0.0595,-0.0581,-0.0557,-0.0544,-0.0525,-0.0518,-0.0512,-0.0493,-0.0486,-0.0458,-0.0458,-0.044,-0.0404,-0.0391,-0.038,-0.0346,-0.0347,-0.034,-0.0325,-0.0309,-0.0305,-0.0302,-0.0291,-0.0286,-0.0337,-0.0337,-0.0337,0,-0.0582,-0.055,-0.0544,-0.0521,-0.0509,-0.051,-0.0486,-0.0474,-0.0449,-0.0441,-0.0447,-0.0404,-0.0391,-0.0357,-0.0349,-0.034,-0.0334,-0.0341,-0.0306,-0.0303,-0.03,-0.0289,-0.0285,-0.0336,-0.0336,-0.0336,-0.0336,0,-0.0536,-0.0514,-0.0497,-0.0474,-0.0459,-0.0436,-0.0428,-0.0414,-0.0413,-0.0405,-0.0377,-0.0362,-0.034,-0.0332,-0.033,-0.0299,-0.0303,-0.0308,-0.0318,-0.0295,-0.0285,-0.028,-0.0335,-0.0335,-0.0335,-0.0335,0,0,-0.0494,-0.0471,-0.0464,-0.0455,-0.0435,-0.0418,-0.0396,-0.0375,-0.0364,-0.0348,-0.0329,-0.0301,-0.0306,-0.0293,-0.029,-0.0276,-0.0251,-0.0282,-0.0282,-0.0277,-0.0218,-0.0215,-0.021,-0.0252,-0.0251,-0.0251,-0.022,0,-0.046,-0.042,-0.0416,-0.0381,-0.0362,-0.0364,-0.0345,-0.0331,-0.0324,-0.0307,-0.0299,-0.0279,-0.0287,-0.0279,-0.0266,-0.0257,-0.0239,-0.0259,-0.0235,-0.0235,-0.024,-0.0204,-0.02,-0.0171,-0.0216,-0.0215,-0.0214,0,-0.0414,-0.0397,-0.0361,-0.0346,-0.0337,-0.032,-0.0302,-0.0285,-0.0271,-0.0267,-0.0254,-0.0253,-0.0231,-0.0244,-0.0214,-0.0228,-0.0219,-0.0213,-0.0212,-0.0209,-0.0223,-0.0201,-0.0162,-0.0158,-0.0208,-0.0208,-0.0209,0,-0.0389,-0.0357,-0.0332,-0.0324,-0.0305,-0.0293,-0.0285,-0.0271,-0.026,-0.0244,-0.0237,-0.0219,-0.0208,-0.0195,-0.019,-0.0199,-0.0161,-0.0172,-0.0157,-0.0157,-0.0148,-0.0149,-0.0108,-0.0142,-0.0142,-0.0142,-0.0143,0,-0.0351,-0.0328,-0.0321,-0.0305,-0.028,-0.0276,-0.0252,-0.0245,-0.0233,-0.0217,-0.0217,-0.0202,-0.0196,-0.018,-0.0176,-0.0152,-0.0148,-0.0144,-0.0144,-0.0144,-0.0145,-0.0137,-0.0139,-0.0141,-0.0142,-0.0142,-0.0142,0,-0.0318,-0.0312,-0.0284,-0.027,-0.0266,-0.0249,-0.0237,-0.0222,-0.0216,-0.0196,-0.0191,-0.0181,-0.0163,-0.0157,-0.0133,-0.0131,-0.0104,-0.0105,-0.0109,-0.0109,-0.0095,-0.0096,-0.0047,-0.0041,-0.008,-0.0079,-0.0079,0,-0.0294,-0.0277,-0.0261,-0.0251,-0.0242,-0.0225,-0.0214,-0.021,-0.0198,-0.0182,-0.017,-0.0151,-0.0136,-0.0107,-0.0098,-0.0081,-0.0082,-0.0066,-0.0079,-0.0081,-0.0082,-0.0083,-0.0082,-0.0063,-0.0063,-0.0062,-0.0062,0,-0.0252,-0.0251,-0.0235,-0.0218,-0.0205,-0.0192,-0.0179,-0.017,-0.0165,-0.0152,-0.0133,-0.0122,-0.01,-0.0082,-0.0065,-0.0057,-0.0059,-0.0059,-0.0054,-0.0054,-0.0058,-0.0057,-0.0103,-0.0059,-0.006,-0.006,-0.006,-0.006,-0.0223,-0.0209,-0.0197,-0.0179,-0.017,-0.0158,-0.0145,-0.0138,-0.0122,-0.0104,-0.0103,-0.0084,-0.0071,-0.0049,-0.0041,-0.0026,-0.003,-0.0024,-0.0022,-0.0021,-0.002,-0.0061,-0.0023,-0.0023,-0.0023,-0.0023,-0.0023,0,-0.0182,-0.0175,-0.0159,-0.0142,-0.0129,-0.0133,-0.012,-0.0108,-0.0091,-0.008,-0.0066,-0.0046,-0.0029,-0.002,-0.0004,0.0006,0.0006,0.001,0.001,0.0011,-0.0017,-0.0022,0.001,0.001,0.001,0.001,0.001,0.001,-0.016,-0.0136,-0.0134,-0.0106,-0.0099,-0.008,-0.0073,-0.0063,-0.0054,-0.0031,-0.0018,-0.0013,-0.0003,0.0014,0.0028,0.003,0.0036,0.0041,0.0043,0.0017,0.0013,0.001,0.0005,0.0043,0.0043,0.0069,0.007,0.007]},{"header":{"parameterUnit":"m.s-1","parameterCategory":1,"la1":30.2991,"la2":30.254,"lo1":-89.0895,"lo2":-89.0444,"dy":0.0017,"dx":0.0017,"nx":28,"ny":28,"refTime":"2024-12-31T03:00:00:Z","depth":0,"parameterNumber":3,"parameterNumberName":"V-component_of_WINDS"},"data":[0,0,0,0,0,0,0,0,0,0,0,0,0,0,0,0,0,0,0,0,0,0,0,0,0,0,0,0,0,0,0,0,0,0,0,0,0,0,0,0,0,0,0,0,0,0,0,0,0,0,0,0,0,0,0,0,0,0,3.148,3.148,0,3.1504,3.1504,3.1505,3.1478,3.1477,3.1476,3.1475,3.1497,3.1498,3.15,0,0,0,0,0,0,0,0,0,0,0,0,0,3.1408,3.141,3.148,3.148,3.148,3.1504,3.1504,3.1505,3.1478,3.1477,3.1475,3.1474,3.1496,3.1498,3.15,0,0,0,0,0,0,0,0,0,0,0,0,0,3.1436,3.141,3.148,3.147,3.1469,3.1504,3.1504,3.1505,3.1478,3.1476,3.1475,3.1474,3.1495,3.1498,3.15,3.1545,0,0,3.1507,3.1508,0,0,0,0,0,0,0,0,3.1435,3.1439,3.1471,3.1471,3.147,3.1486,3.1487,3.1518,3.1478,3.1475,3.1475,3.1473,3.1494,3.1497,3.1504,3.1546,3.1547,3.1507,3.1509,3.151,3.151,0,0,0,0,0,0,0,3.1433,3.1438,3.1489,3.1472,3.1471,3.1464,3.1466,3.1493,3.1493,3.1475,3.1473,3.1476,3.1494,3.1502,3.1505,3.1547,3.1507,3.1509,3.1511,3.1511,3.1627,3.1629,0,0,0,0,0,0,3.1432,3.1436,3.1488,3.149,3.1448,3.1466,3.1469,3.1483,3.1492,3.1492,3.1478,3.1475,3.1499,3.1502,3.1505,3.1559,3.151,3.1512,3.1513,3.1626,3.1628,3.1629,0,0,0,0,0,0,3.1431,3.1437,3.1488,3.1463,3.1469,3.1469,3.1485,3.1484,3.1492,3.1494,3.1494,3.1487,3.1498,3.1502,3.1536,3.1559,3.1513,3.1515,3.1624,3.1626,3.1629,3.1667,0,0,0,0,0,0,3.1429,3.1437,3.1454,3.1463,3.147,3.1518,3.1486,3.1485,3.1497,3.1494,3.1503,3.1503,3.1497,3.1532,3.1538,3.1562,3.1517,3.1621,3.1625,3.1628,3.1663,3.167,3.1676,0,0,0,0,0,3.1427,3.1463,3.1455,3.1462,3.1492,3.152,3.1523,3.1517,3.1499,3.1516,3.1518,3.1502,3.1556,3.1536,3.1542,3.1567,3.162,3.1624,3.1627,3.166,3.1669,3.1676,0,0,0,0,0,0,3.1456,3.1464,3.1456,3.1496,3.1508,3.1515,3.1536,3.1526,3.1541,3.1538,3.1528,3.153,3.1566,3.157,3.1547,3.1611,3.1585,3.159,3.1608,3.1616,3.1622,3.1621,3.1519,0,0,0,0,0,3.1467,3.149,3.1495,3.1531,3.1537,3.1536,3.1548,3.1542,3.1553,3.1557,3.1561,3.1571,3.159,3.1603,3.1621,3.1664,3.1665,3.1684,3.169,3.1696,3.17,3.1724,3.1733,3.1642,3.1642,3.1642,0,0,3.149,3.1498,3.1512,3.1537,3.1545,3.1568,3.154,3.1565,3.1582,3.156,3.1593,3.1596,3.1607,3.1646,3.1663,3.165,3.1726,3.17,3.1705,3.1706,3.1729,3.1738,3.1745,3.1645,3.1644,3.1644,0,0,3.1545,3.1553,3.1584,3.1593,3.1606,3.1605,3.1613,3.1622,3.1624,3.1656,3.1641,3.166,3.1693,3.1702,3.1711,3.177,3.1757,3.1776,3.181,3.1833,3.1841,3.1847,3.1869,3.1877,3.1781,3.1781,3.1781,0,3.1572,3.1607,3.1601,3.1628,3.1639,3.1622,3.1653,3.1662,3.168,3.1688,3.1673,3.1715,3.1721,3.1762,3.1777,3.1784,3.1793,3.1775,3.184,3.1846,3.1852,3.1873,3.1881,3.1783,3.1783,3.1783,3.1783,0,3.164,3.1665,3.1688,3.1708,3.1721,3.175,3.1748,3.1763,3.1756,3.1757,3.179,3.1797,3.1817,3.1826,3.1819,3.1866,3.1858,3.1842,3.1815,3.1863,3.1883,3.1891,3.1787,3.1786,3.1785,3.1785,0,0,3.1713,3.173,3.1739,3.1748,3.1761,3.178,3.1808,3.1828,3.1842,3.1854,3.1878,3.1907,3.1893,3.1903,3.1897,3.1917,3.1965,3.1899,3.1899,3.1911,3.2019,3.2031,3.2041,3.1956,3.1958,3.1959,3.2018,0,3.1769,3.1819,3.1815,3.1862,3.1885,3.187,3.1894,3.1905,3.1907,3.1926,3.1927,3.1948,3.1927,3.1934,3.1953,3.1955,3.1986,3.1951,3.1978,3.1979,3.1977,3.2051,3.2064,3.2119,3.2026,3.2027,3.2028,0,3.184,3.1858,3.1908,3.192,3.1929,3.1951,3.197,3.1989,3.2001,3.2,3.2013,3.2003,3.2031,3.2004,3.2043,3.2019,3.203,3.2032,3.2034,3.2037,3.2007,3.2056,3.2137,3.2146,3.204,3.2039,3.2038,0,3.189,3.1925,3.1961,3.1969,3.1983,3.1999,3.2005,3.2016,3.2029,3.2045,3.2053,3.2072,3.2082,3.2097,3.2093,3.2073,3.2133,3.2105,3.2133,3.2134,3.2147,3.2146,3.2231,3.2153,3.2153,3.2153,3.2152,0,3.1953,3.1984,3.1983,3.2005,3.204,3.2034,3.2069,3.2073,3.2083,3.2105,3.2092,3.2112,3.2105,3.2126,3.2122,3.2156,3.216,3.2161,3.216,3.2162,3.2163,3.217,3.2166,3.2155,3.2154,3.2154,3.2153,0,3.2014,3.2015,3.2052,3.2063,3.2066,3.2092,3.2101,3.2121,3.2122,3.215,3.2156,3.2157,3.218,3.2178,3.2203,3.2201,3.2243,3.2237,3.2239,3.2238,3.2267,3.2265,3.2361,3.2373,3.2286,3.2287,3.2287,0,3.2055,3.2079,3.2093,3.2107,3.2115,3.2138,3.2152,3.2147,3.2162,3.2178,3.2197,3.2219,3.2237,3.2275,3.2277,3.2297,3.2292,3.2324,3.2294,3.2297,3.2293,3.2292,3.2295,3.233,3.2331,3.2331,3.2332,0,3.2127,3.2126,3.2147,3.2168,3.2185,3.2201,3.2216,3.2228,3.2225,3.2242,3.2266,3.228,3.2307,3.233,3.2349,3.2354,3.2343,3.2341,3.2349,3.2353,3.2354,3.2355,3.2256,3.2339,3.2339,3.2338,3.2338,3.2337,3.2179,3.2201,3.2215,3.2238,3.2249,3.2264,3.2284,3.2288,3.2309,3.2331,3.2327,3.2355,3.2366,3.2391,3.2399,3.242,3.2408,3.2419,3.2422,3.2425,3.2429,3.235,3.2423,3.2423,3.2423,3.2423,3.2423,0,3.2252,3.226,3.2282,3.2304,3.2323,3.2312,3.2327,3.2344,3.2369,3.2381,3.24,3.2428,3.245,3.2455,3.2476,3.2493,3.2488,3.2498,3.2497,3.2499,3.2438,3.243,3.2502,3.2502,3.2502,3.2502,3.2502,3.2502,3.2292,3.2328,3.2329,3.237,3.2378,3.2406,3.2417,3.243,3.244,3.2473,3.2492,3.2496,3.2505,3.2527,3.2547,3.2548,3.2557,3.2569,3.2568,3.2511,3.2503,3.2496,3.2488,3.2571,3.2571,3.2628,3.2628,3.2628]}]]